| time (UTC) | temp F | wind direction | speed knots | gust knots | rain 1hr in | rain 24hr in | rain mn in | humidity % | barometer mb |
| 20260507220050 | 56 | 260 | 6.1 | 15.6 | 0.00 | 0.00 | 0.00 | 28 | 1009.1 |
| 20260507214547 | 56 | 270 | 4.3 | 11.3 | 0.00 | 0.00 | 0.00 | 27 | 1009.0 |
| 20260507213046 | 55 | 314 | 6.1 | 13.9 | 0.00 | 0.00 | 0.00 | 27 | 1009.0 |
| 20260507211545 | 57 | 264 | 11.3 | 18.2 | 0.00 | 0.00 | 0.00 | 29 | 1009.2 |
| 20260507210043 | 56 | 275 | 6.1 | 13.9 | 0.00 | 0.00 | 0.00 | 29 | 1009.2 |
| 20260507204542 | 54 | 252 | 8.7 | 15.6 | 0.00 | 0.00 | 0.00 | 28 | 1009.3 |
| 20260507203048 | 56 | 240 | 4.3 | 13.9 | 0.00 | 0.00 | 0.00 | 32 | 1009.6 |
| 20260507201540 | 55 | 274 | 4.3 | 20.0 | 0.00 | 0.00 | 0.00 | 30 | 1009.9 |
| 20260507200046 | 55 | 224 | 6.1 | 15.6 | 0.00 | 0.00 | 0.00 | 31 | 1010.0 |
| 20260507194534 | 53 | 321 | 6.1 | 18.2 | 0.00 | 0.00 | 0.00 | 30 | 1010.3 |
| 20260507193035 | 53 | 259 | 6.1 | 10.4 | 0.00 | 0.00 | 0.00 | 30 | 1010.3 |
| 20260507191532 | 53 | 226 | 6.1 | 16.5 | 0.00 | 0.00 | 0.00 | 31 | 1010.5 |
| 20260507190033 | 54 | 235 | 6.1 | 10.4 | 0.00 | 0.00 | 0.00 | 30 | 1010.5 |
| 20260507184530 | 53 | 315 | 6.1 | 13.0 | 0.00 | 0.00 | 0.00 | 33 | 1010.5 |
| 20260507183036 | 52 | 222 | 7.8 | 14.8 | 0.00 | 0.00 | 0.00 | 31 | 1010.8 |
| 20260507181526 | 52 | 282 | 6.1 | 15.6 | 0.00 | 0.00 | 0.00 | 34 | 1011.0 |
| 20260507180035 | 51 | 271 | 5.2 | 10.4 | 0.00 | 0.00 | 0.00 | 34 | 1011.1 |
| 20260507174528 | 51 | 297 | 4.3 | 13.0 | 0.00 | 0.00 | 0.00 | 37 | 1011.3 |
| 20260507173019 | 50 | 333 | 6.1 | 12.2 | 0.00 | 0.00 | 0.00 | 35 | 1011.6 |
| 20260507171517 | 50 | 328 | 5.2 | 13.9 | 0.00 | 0.00 | 0.00 | 34 | 1011.7 |
| 20260507170018 | 50 | 314 | 3.5 | 13.9 | 0.00 | 0.00 | 0.00 | 34 | 1011.7 |
| 20260507164514 | 49 | 165 | 7.8 | 13.9 | 0.00 | 0.00 | 0.00 | 33 | 1011.9 |
| 20260507163011 | 50 | 262 | 6.1 | 10.4 | 0.00 | 0.00 | 0.00 | 38 | 1012.0 |
| 20260507161508 | 49 | 317 | 0.9 | 11.3 | 0.00 | 0.00 | 0.00 | 36 | 1012.2 |
| 20260507160005 | 48 | 191 | 4.3 | 9.6 | 0.00 | 0.00 | 0.00 | 39 | 1012.3 |
| 20260507154502 | 48 | 178 | 0.0 | 7.8 | 0.00 | 0.00 | 0.00 | 41 | 1012.3 |
| 20260507153059 | 47 | 259 | 3.5 | 9.6 | 0.00 | 0.00 | 0.00 | 39 | 1012.4 |
| 20260507151556 | 47 | 42 | 2.6 | 7.8 | 0.00 | 0.00 | 0.00 | 42 | 1012.3 |
| 20260507150052 | 46 | 304 | 0.9 | 7.8 | 0.00 | 0.00 | 0.00 | 44 | 1012.4 |
| 20260507144547 | 46 | 284 | 1.7 | 7.0 | 0.00 | 0.00 | 0.00 | 43 | 1012.5 |
| 20260507143046 | 45 | 313 | 2.6 | 8.7 | 0.00 | 0.00 | 0.00 | 45 | 1012.7 |
| 20260507141540 | 44 | 282 | 1.7 | 6.1 | 0.00 | 0.00 | 0.00 | 45 | 1012.7 |
| 20260507140034 | 44 | 296 | 2.6 | 7.0 | 0.00 | 0.00 | 0.00 | 48 | 1012.8 |
| 20260507134539 | 43 | 241 | 1.7 | 7.0 | 0.00 | 0.00 | 0.00 | 51 | 1012.9 |
| 20260507133027 | 42 | 271 | 2.6 | 6.1 | 0.00 | 0.00 | 0.00 | 54 | 1012.9 |
| 20260507131531 | 41 | 306 | 1.7 | 9.6 | 0.00 | 0.00 | 0.00 | 57 | 1012.9 |
| 20260507130019 | 40 | 264 | 2.6 | 5.2 | 0.00 | 0.00 | 0.00 | 60 | 1012.9 |
| 20260507124515 | 39 | 215 | 2.6 | 6.1 | 0.00 | 0.00 | 0.00 | 63 | 1013.0 |
| 20260507123018 | 38 | 5 | 0.9 | 3.5 | 0.00 | 0.00 | 0.00 | 67 | 1013.0 |
| 20260507121506 | 37 | 174 | 1.7 | 3.5 | 0.00 | 0.00 | 0.00 | 69 | 1013.0 |
| 20260507120006 | 36 | 225 | 0.9 | 2.6 | 0.00 | 0.00 | 0.00 | 71 | 1013.0 |
| 20260507114503 | 35 | 276 | 0.9 | 2.6 | 0.00 | 0.00 | 0.00 | 70 | 1013.0 |
| 20260507113100 | 35 | 276 | 0.9 | 3.5 | 0.00 | 0.00 | 0.00 | 70 | 1012.9 |
| 20260507111555 | 34 | 269 | 0.9 | 3.5 | 0.00 | 0.00 | 0.00 | 71 | 1012.9 |
| 20260507110107 | 34 | 273 | 0.9 | 3.5 | 0.00 | 0.00 | 0.00 | 71 | 1012.9 |
| 20260507104554 | 34 | 221 | 1.7 | 3.5 | 0.00 | 0.00 | 0.00 | 72 | 1013.0 |
| 20260507103056 | 34 | 221 | 0.9 | 3.5 | 0.00 | 0.00 | 0.00 | 70 | 1013.1 |
| 20260507101551 | 34 | 221 | 1.7 | 2.6 | 0.00 | 0.00 | 0.00 | 69 | 1013.1 |
| 20260507100049 | 34 | 221 | 0.9 | 2.6 | 0.00 | 0.00 | 0.00 | 68 | 1013.1 |
| 20260507094548 | 35 | 221 | 0.9 | 2.6 | 0.00 | 0.00 | 0.00 | 67 | 1013.1 |
| 20260507093052 | 35 | 221 | 0.9 | 2.6 | 0.00 | 0.00 | 0.00 | 66 | 1013.1 |
| 20260507091607 | 36 | 221 | 1.7 | 3.5 | 0.00 | 0.00 | 0.00 | 66 | 1013.0 |
| 20260507090047 | 36 | 236 | 1.7 | 3.5 | 0.00 | 0.00 | 0.00 | 67 | 1013.1 |
| 20260507084543 | 36 | 236 | 0.9 | 3.5 | 0.00 | 0.00 | 0.00 | 67 | 1013.1 |
| 20260507083041 | 36 | 236 | 1.7 | 3.5 | 0.00 | 0.00 | 0.00 | 67 | 1013.2 |
| 20260507081539 | 35 | 236 | 0.9 | 3.5 | 0.00 | 0.00 | 0.00 | 67 | 1013.1 |
| 20260507080038 | 36 | 236 | 0.9 | 2.6 | 0.00 | 0.00 | 0.00 | 66 | 1013.0 |
| 20260507074543 | 36 | 236 | 0.9 | 1.7 | 0.00 | 0.00 | 0.00 | 64 | 1012.9 |
| 20260507073032 | 37 | 236 | 0.9 | 2.6 | 0.00 | 0.00 | 0.00 | 62 | 1013.0 |
| 20260507071528 | 38 | 236 | 0.9 | 1.7 | 0.00 | 0.00 | 0.00 | 61 | 1013.4 |
| 20260507070026 | 39 | 236 | 0.0 | 1.7 | 0.00 | 0.00 | 0.00 | 59 | 1013.4 |
| 20260507064524 | 39 | 236 | 0.0 | 2.6 | 0.00 | 0.00 | 0.00 | 59 | 1013.4 |
| 20260507063025 | 39 | 236 | 0.9 | 2.6 | 0.00 | 0.00 | 0.00 | 59 | 1013.6 |
| 20260507061520 | 39 | 236 | 1.7 | 3.5 | 0.00 | 0.00 | 0.00 | 59 | 1013.7 |
| 20260507060018 | 40 | 240 | 1.7 | 3.5 | 0.00 | 0.00 | 0.00 | 58 | 1013.9 |
| 20260507054517 | 40 | 271 | 0.9 | 2.6 | 0.00 | 0.00 | 0.00 | 57 | 1013.9 |
| 20260507053016 | 40 | 275 | 1.7 | 3.5 | 0.00 | 0.00 | 0.00 | 56 | 1014.1 |
| 20260507051513 | 40 | 281 | 0.0 | 3.5 | 0.00 | 0.00 | 0.00 | 56 | 1014.1 |
| 20260507050011 | 40 | 269 | 0.9 | 5.2 | 0.00 | 0.00 | 0.00 | 56 | 1014.3 |
| 20260507044511 | 40 | 282 | 1.7 | 5.2 | 0.00 | 0.00 | 0.00 | 55 | 1014.3 |
| 20260507043011 | 40 | 268 | 0.9 | 3.5 | 0.00 | 0.00 | 0.00 | 55 | 1014.4 |
| 20260507041512 | 40 | 258 | 0.9 | 5.2 | 0.00 | 0.00 | 0.00 | 54 | 1014.4 |
| 20260507040009 | 41 | 261 | 0.9 | 5.2 | 0.00 | 0.00 | 0.00 | 54 | 1014.6 |
| 20260507034510 | 41 | 269 | 1.7 | 5.2 | 0.00 | 0.00 | 0.00 | 54 | 1014.7 |
| 20260507033009 | 41 | 270 | 0.9 | 7.0 | 0.00 | 0.00 | 0.00 | 53 | 1014.7 |
| 20260507031511 | 41 | 301 | 0.9 | 2.6 | 0.00 | 0.00 | 0.00 | 53 | 1014.7 |
| 20260507030008 | 41 | 269 | 1.7 | 5.2 | 0.00 | 0.00 | 0.00 | 52 | 1014.8 |
| 20260507024507 | 41 | 271 | 2.6 | 5.2 | 0.00 | 0.00 | 0.00 | 52 | 1014.8 |
| 20260507023007 | 42 | 269 | 0.9 | 6.1 | 0.00 | 0.00 | 0.00 | 51 | 1014.8 |
| 20260507021506 | 42 | 263 | 2.6 | 5.2 | 0.00 | 0.00 | 0.00 | 50 | 1014.8 |
| 20260507020006 | 42 | 257 | 0.9 | 3.5 | 0.00 | 0.00 | 0.00 | 50 | 1014.7 |
| 20260507014509 | 42 | 284 | 1.7 | 4.3 | 0.00 | 0.00 | 0.00 | 49 | 1014.6 |
| 20260507013005 | 42 | 297 | 1.7 | 6.1 | 0.00 | 0.00 | 0.00 | 49 | 1014.5 |
| 20260507011505 | 42 | 290 | 1.7 | 6.1 | 0.00 | 0.00 | 0.00 | 49 | 1014.6 |
| 20260507010010 | 42 | 246 | 0.9 | 7.0 | 0.00 | 0.00 | 0.00 | 49 | 1014.7 |
| 20260507004504 | 42 | 303 | 2.6 | 7.0 | 0.00 | 0.00 | 0.00 | 48 | 1014.7 |
| 20260507003008 | 43 | 261 | 3.5 | 8.7 | 0.00 | 0.00 | 0.00 | 48 | 1014.8 |
| 20260507001503 | 43 | 329 | 2.6 | 10.4 | 0.00 | 0.00 | 0.00 | 48 | 1014.9 |
| 20260507000003 | 43 | 257 | 5.2 | 9.6 | 0.00 | 0.00 | 0.00 | 48 | 1014.9 |
| 20260506234502 | 43 | 294 | 4.3 | 11.3 | 0.00 | 0.00 | 0.00 | 47 | 1015.0 |
| 20260506233003 | 43 | 273 | 5.2 | 12.2 | 0.00 | 0.00 | 0.00 | 47 | 1015.0 |
| 20260506231505 | 43 | 280 | 4.3 | 10.4 | 0.00 | 0.00 | 0.00 | 47 | 1015.0 |
| 20260506230001 | 43 | 248 | 3.5 | 8.7 | 0.00 | 0.00 | 0.00 | 49 | 1015.2 |
| 20260506224501 | 43 | 278 | 3.5 | 9.6 | 0.00 | 0.00 | 0.00 | 48 | 1015.2 |
| 20260506223000 | 43 | 255 | 4.3 | 11.3 | 0.00 | 0.00 | 0.00 | 47 | 1015.2 |
| 20260506221608 | 43 | 211 | 5.2 | 10.4 | 0.00 | 0.00 | 0.00 | 49 | 1015.3 |